| time (UTC) | temp F | wind direction | speed knots | gust knots | rain 1hr in | rain 24hr in | rain mn in | humidity % | barometer mb |
| 20260505100105 | 48 | 360 | 2.6 | 4.3 | 0.00 | 0.14 | 0.13 | 84 | 1011.2 |
| 20260505094511 | 48 | 360 | 2.6 | 4.3 | 0.01 | 0.14 | 0.13 | 83 | 1010.6 |
| 20260505093025 | 48 | 360 | 4.3 | 9.6 | 0.05 | 0.14 | 0.13 | 82 | 1010.3 |
| 20260505091547 | 48 | 360 | 3.5 | 11.3 | 0.08 | 0.14 | 0.13 | 83 | 1009.9 |
| 20260505090002 | 48 | 360 | 7.0 | 13.0 | 0.11 | 0.14 | 0.13 | 84 | 1009.3 |
| 20260505084522 | 48 | 360 | 5.2 | 10.4 | 0.11 | 0.13 | 0.12 | 85 | 1009.1 |
| 20260505083037 | 49 | 360 | 5.2 | 7.0 | 0.07 | 0.09 | 0.09 | 83 | 1010.0 |
| 20260505081628 | 49 | 360 | 4.3 | 9.6 | 0.05 | 0.06 | 0.05 | 81 | 1011.4 |
| 20260505080013 | 51 | 360 | 1.7 | 7.0 | 0.02 | 0.03 | 0.02 | 76 | 1011.3 |
| 20260505074525 | 54 | 360 | 2.6 | 3.5 | 0.01 | 0.02 | 0.01 | 68 | 1011.3 |
| 20260505073040 | 56 | 360 | 5.2 | 11.3 | 0.01 | 0.02 | 0.01 | 57 | 1009.5 |
| 20260505071558 | 58 | 360 | 3.5 | 11.3 | 0.00 | 0.01 | 0.00 | 49 | 1009.3 |
| 20260505070014 | 59 | 360 | 4.3 | 13.0 | 0.00 | 0.01 | 0.00 | 49 | 1008.6 |
| 20260505064525 | 59 | 360 | 7.0 | 17.4 | 0.00 | 0.01 | 0.00 | 48 | 1008.4 |
| 20260505063046 | 60 | 360 | 7.8 | 15.6 | 0.00 | 0.01 | 0.00 | 51 | 1008.2 |
| 20260505061555 | 61 | 360 | 8.7 | 17.4 | 0.00 | 0.01 | 0.00 | 52 | 1007.9 |
| 20260505060011 | 63 | 360 | 7.8 | 17.4 | 0.00 | 0.01 | 0.00 | 51 | 1007.2 |
| 20260505054529 | 63 | 360 | 7.0 | 9.6 | 0.01 | 0.01 | 0.00 | 56 | 1007.2 |
| 20260505053045 | 63 | 360 | 6.1 | 12.2 | 0.01 | 0.01 | 0.00 | 58 | 1007.1 |
| 20260505051555 | 63 | 360 | 5.2 | 10.4 | 0.01 | 0.01 | 0.00 | 60 | 1006.7 |
| 20260505041540 | 70 | 360 | 2.6 | 6.1 | 0.00 | 0.00 | 0.00 | 55 | 1005.3 |
| 20260505040100 | 70 | 360 | 1.7 | 5.2 | 0.00 | 0.00 | 0.00 | 72 | 1004.9 |
| 20260505034508 | 70 | 360 | 0.9 | 5.2 | 0.00 | 0.00 | 0.00 | 73 | 1004.7 |
| 20260505033027 | 70 | 360 | 0.9 | 3.5 | 0.00 | 0.00 | 0.00 | 73 | 1004.6 |
| 20260505031544 | 70 | 360 | 0.0 | 3.5 | 0.00 | 0.00 | 0.00 | 72 | 1004.5 |
| 20260505030056 | 71 | 360 | 0.0 | 0.0 | 0.00 | 0.00 | 0.00 | 68 | 1004.5 |
| 20260505024511 | 71 | 360 | 0.0 | 0.0 | 0.00 | 0.00 | 0.00 | 67 | 1004.3 |
| 20260505023022 | 72 | 360 | 0.0 | 0.0 | 0.00 | 0.00 | 0.00 | 65 | 1004.0 |
| 20260505021544 | 73 | 360 | 0.0 | 0.0 | 0.00 | 0.00 | 0.00 | 63 | 1003.8 |
| 20260505020055 | 74 | 360 | 0.0 | 0.0 | 0.00 | 0.00 | 0.00 | 62 | 1003.6 |
| 20260505014512 | 74 | 360 | 0.0 | 0.0 | 0.00 | 0.00 | 0.00 | 61 | 1003.4 |
| 20260505013031 | 75 | 360 | 0.0 | 0.0 | 0.00 | 0.00 | 0.00 | 59 | 1003.2 |
| 20260505011555 | 75 | 360 | 0.0 | 0.0 | 0.00 | 0.00 | 0.00 | 58 | 1003.1 |
| 20260505010014 | 76 | 360 | 0.0 | 0.0 | 0.00 | 0.00 | 0.00 | 57 | 1002.9 |
| 20260505004521 | 77 | 360 | 0.0 | 0.9 | 0.00 | 0.00 | 0.00 | 55 | 1002.8 |
| 20260505003042 | 77 | 360 | 0.0 | 1.7 | 0.00 | 0.00 | 0.00 | 55 | 1002.7 |
| 20260505001556 | 78 | 360 | 0.0 | 1.7 | 0.00 | 0.00 | 0.00 | 55 | 1002.6 |
| 20260505000014 | 78 | 360 | 0.9 | 2.6 | 0.00 | 0.00 | 0.00 | 53 | 1002.6 |
| 20260504234526 | 79 | 360 | 0.9 | 2.6 | 0.00 | 0.00 | 0.00 | 51 | 1002.6 |
| 20260504233039 | 79 | 360 | 0.9 | 3.5 | 0.00 | 0.00 | 0.00 | 49 | 1002.7 |
| 20260504231558 | 80 | 360 | 1.7 | 3.5 | 0.00 | 0.00 | 0.00 | 52 | 1002.7 |
| 20260504230008 | 79 | 360 | 1.7 | 9.6 | 0.00 | 0.00 | 0.00 | 48 | 1002.7 |
| 20260504224524 | 80 | 360 | 0.9 | 8.7 | 0.00 | 0.00 | 0.00 | 52 | 1002.7 |
| 20260504223034 | 80 | 360 | 2.6 | 8.7 | 0.00 | 0.00 | 0.00 | 50 | 1002.7 |
| 20260504221604 | 80 | 360 | 2.6 | 7.0 | 0.00 | 0.00 | 0.00 | 51 | 1002.7 |
| 20260504220024 | 81 | 360 | 3.5 | 7.8 | 0.00 | 0.00 | 0.00 | 47 | 1002.8 |
| 20260504214538 | 81 | 360 | 1.7 | 6.1 | 0.00 | 0.00 | 0.00 | 50 | 1002.9 |
| 20260504213112 | 81 | 360 | 2.6 | 9.6 | 0.00 | 0.00 | 0.00 | 47 | 1002.8 |
| 20260504211508 | 81 | 360 | 3.5 | 8.7 | 0.00 | 0.00 | 0.00 | 49 | 1002.9 |
| 20260504210026 | 81 | 360 | 0.9 | 6.1 | 0.00 | 0.00 | 0.00 | 49 | 1002.9 |
| 20260504204538 | 80 | 360 | 2.6 | 6.1 | 0.00 | 0.00 | 0.00 | 51 | 1003.1 |
| 20260504203056 | 81 | 360 | 1.7 | 6.1 | 0.00 | 0.00 | 0.00 | 48 | 1003.3 |
| 20260504201505 | 80 | 360 | 2.6 | 9.6 | 0.00 | 0.00 | 0.00 | 49 | 1003.4 |
| 20260504200026 | 80 | 360 | 3.5 | 8.7 | 0.00 | 0.00 | 0.00 | 49 | 1003.5 |
| 20260504194542 | 79 | 360 | 1.7 | 5.2 | 0.00 | 0.00 | 0.00 | 47 | 1003.6 |
| 20260504193055 | 79 | 360 | 2.6 | 7.0 | 0.00 | 0.00 | 0.00 | 49 | 1003.6 |
| 20260504191529 | 79 | 360 | 2.6 | 7.0 | 0.00 | 0.00 | 0.00 | 50 | 1003.6 |
| 20260504190030 | 78 | 360 | 2.6 | 5.2 | 0.00 | 0.00 | 0.00 | 49 | 1003.8 |
| 20260504184546 | 78 | 360 | 1.7 | 8.7 | 0.00 | 0.00 | 0.00 | 53 | 1003.8 |
| 20260504183006 | 78 | 360 | 2.6 | 8.7 | 0.00 | 0.00 | 0.00 | 53 | 1004.0 |
| 20260504181522 | 77 | 360 | 0.9 | 5.2 | 0.00 | 0.00 | 0.00 | 55 | 1003.9 |
| 20260504180048 | 77 | 360 | 3.5 | 7.8 | 0.00 | 0.00 | 0.00 | 52 | 1004.1 |
| 20260504174550 | 76 | 360 | 1.7 | 7.8 | 0.00 | 0.00 | 0.00 | 50 | 1004.3 |
| 20260504173006 | 76 | 360 | 1.7 | 7.8 | 0.00 | 0.00 | 0.00 | 53 | 1004.3 |
| 20260504171532 | 76 | 360 | 2.6 | 6.1 | 0.00 | 0.00 | 0.00 | 54 | 1004.3 |